TimeEST,TemperatureF,Dew PointF,Humidity,Sea Level PressureIn,VisibilityMPH,Wind Direction,Wind SpeedMPH,Gust SpeedMPH,PrecipitationIn,Events,Conditions,WindDirDegrees,DateUTC
12:53 AM,28.9,24.1,82,29.64,4.0,NNW,11.5,-,0.00,Snow,Light Snow,340,2013-02-17 05:53:00
1:11 AM,28.4,24.8,86,29.62,2.0,North,10.4,-,0.00,Snow,Light Snow,360,2013-02-17 06:11:00
1:19 AM,28.4,26.6,93,29.62,1.5,NNW,11.5,-,0.00,Snow,Light Snow,340,2013-02-17 06:19:00
1:53 AM,28.0,26.1,92,29.63,1.8,North,10.4,-,0.00,Snow,Light Snow,350,2013-02-17 06:53:00
2:08 AM,28.4,26.6,93,29.62,2.0,North,10.4,-,0.00,Snow,Light Snow,350,2013-02-17 07:08:00
2:19 AM,28.4,24.8,86,29.60,1.2,North,13.8,19.6,0.00,Snow,Light Snow,350,2013-02-17 07:19:00
2:35 AM,26.6,24.8,93,29.58,0.8,NNW,18.4,28.8,0.00,Snow,Light Snow,340,2013-02-17 07:35:00
2:49 AM,26.6,24.8,93,29.57,1.0,NNW,17.3,23.0,0.00,Snow,Light Snow,340,2013-02-17 07:49:00
2:53 AM,27.0,25.0,92,29.58,1.2,NNW,18.4,26.5,0.00,Snow,Light Snow,340,2013-02-17 07:53:00
3:10 AM,26.6,24.8,93,29.58,2.5,NNW,11.5,25.3,0.00,Snow,Light Snow,340,2013-02-17 08:10:00
3:29 AM,24.8,21.2,86,29.58,3.0,NNW,18.4,27.6,0.00,Snow,Light Snow,340,2013-02-17 08:29:00
3:44 AM,24.8,21.2,86,29.58,2.5,NNW,18.4,25.3,0.00,Snow,Light Snow,340,2013-02-17 08:44:00
3:53 AM,24.1,21.0,88,29.58,2.0,NNW,18.4,28.8,0.00,Snow,Light Snow,340,2013-02-17 08:53:00
4:02 AM,24.8,19.4,80,29.56,1.8,North,19.6,31.1,0.00,Snow,Light Snow,350,2013-02-17 09:02:00
4:53 AM,23.0,19.9,88,29.56,1.8,NNW,19.6,29.9,0.00,Snow,Light Snow,340,2013-02-17 09:53:00
5:53 AM,21.0,19.0,92,29.52,1.0,NNW,18.4,26.5,0.00,Snow,Light Snow,340,2013-02-17 10:53:00
6:00 AM,21.2,19.4,93,29.52,0.8,NNW,16.1,29.9,0.00,Snow,Light Snow,340,2013-02-17 11:00:00
6:19 AM,21.2,17.6,86,29.51,1.2,NNW,17.3,26.5,0.00,Snow,Light Snow,340,2013-02-17 11:19:00
6:49 AM,21.2,19.4,93,29.49,0.8,NNW,18.4,27.6,0.00,Snow,Light Snow,340,2013-02-17 11:49:00
6:53 AM,19.9,18.0,92,29.49,0.8,NNW,18.4,28.8,0.00,Snow,Light Snow,340,2013-02-17 11:53:00
7:15 AM,19.4,17.6,93,29.48,1.0,NNW,25.3,36.8,0.00,,Mist,340,2013-02-17 12:15:00
7:25 AM,21.2,17.6,86,29.48,1.0,NNW,19.6,32.2,0.00,,Mist,330,2013-02-17 12:25:00
7:49 AM,21.2,17.6,86,29.48,1.2,NNW,18.4,32.2,0.00,,Overcast,340,2013-02-17 12:49:00
7:53 AM,21.0,17.1,85,29.48,1.2,NNW,19.6,32.2,0.00,,Overcast,330,2013-02-17 12:53:00
8:00 AM,21.2,15.8,80,29.47,3.0,NNW,17.3,29.9,N/A,,Haze,340,2013-02-17 13:00:00
8:53 AM,21.9,9.0,58,29.47,10.0,NNW,11.5,27.6,0.00,,Overcast,330,2013-02-17 13:53:00
9:53 AM,24.1,3.0,40,29.46,7.0,NNW,19.6,29.9,0.00,,Overcast,330,2013-02-17 14:53:00
10:53 AM,25.0,3.0,39,29.47,9.0,WNW,11.5,24.2,0.00,,Mostly Cloudy,300,2013-02-17 15:53:00
11:53 AM,24.1,3.0,40,29.48,9.0,NW,16.1,28.8,0.00,,Mostly Cloudy,310,2013-02-17 16:53:00
12:53 PM,25.0,3.0,39,29.50,8.0,NW,12.7,23.0,0.00,,Scattered Clouds,310,2013-02-17 17:53:00
1:53 PM,26.1,1.9,35,29.52,7.0,NW,13.8,34.5,0.00,,Clear,310,2013-02-17 18:53:00
2:53 PM,27.0,1.9,34,29.53,9.0,WNW,13.8,27.6,0.00,,Clear,300,2013-02-17 19:53:00
3:53 PM,26.1,1.0,34,29.56,9.0,WNW,12.7,31.1,N/A,,Clear,300,2013-02-17 20:53:00
4:53 PM,25.0,-0.9,33,29.60,10.0,WNW,16.1,27.6,0.00,,Clear,300,2013-02-17 21:53:00
5:53 PM,24.1,-0.9,34,29.63,10.0,NW,13.8,35.7,N/A,,Clear,310,2013-02-17 22:53:00
6:53 PM,23.0,-0.9,35,29.67,9.0,WNW,11.5,33.4,N/A,,Clear,300,2013-02-17 23:53:00
7:53 PM,21.0,-0.0,40,29.69,10.0,WNW,16.1,40.3,N/A,,Clear,300,2013-02-18 00:53:00
8:53 PM,19.9,-0.9,40,29.70,9.0,WNW,16.1,34.5,0.00,,Clear,300,2013-02-18 01:53:00
9:53 PM,19.0,-0.9,42,29.73,10.0,WNW,11.5,28.8,N/A,,Clear,300,2013-02-18 02:53:00
10:53 PM,18.0,-0.0,45,29.75,10.0,WNW,15.0,29.9,N/A,,Partly Cloudy,300,2013-02-18 03:53:00